• In Hungary
  • List of Countries
  • For 7 days
  • Water Temperature
  • Satellite Maps
  • Weather Map
  • News
  • Weather Widgets
  • user-avatar
    Login

    Hourly Weather San Gimignano

    Today, 18 February, Sunday

    Time Temperature Precipitation Wind Pressure Humidity
    00:00 +9°C° 1.3 mm 2 mps 741 mmHg 97%
    01:00 +9°C° 0 mm 2 mps 741 mmHg 98%
    02:00 +9°C° 1.9 mm 2 mps 741 mmHg 98%
    03:00 +9°C° 1.9 mm 2 mps 741 mmHg 97%
    04:00 +9°C° 1.9 mm 2 mps 740 mmHg 97%
    05:00 +9°C° 1 mm 2 mps 740 mmHg 96%
    06:00 +10°C° 1 mm 1 mps 740 mmHg 95%
    07:00 +9°C° 1 mm 1 mps 740 mmHg 95%
    08:00 +8°C° 1 mm 2 mps 740 mmHg 93%
    09:00 +9°C° 1 mm 2 mps 740 mmHg 91%
    10:00 +9°C° 1 mm 2 mps 741 mmHg 89%
    11:00 +9°C° 0.6 mm 3 mps 741 mmHg 87%
    12:00 +9°C° 0.6 mm 3 mps 741 mmHg 86%
    13:00 +8°C° 0.6 mm 4 mps 741 mmHg 84%
    14:00 +7°C° 0.3 mm 4 mps 741 mmHg 84%
    15:00 +7°C° 0.3 mm 4 mps 741 mmHg 84%
    16:00 +7°C° 0.3 mm 4 mps 741 mmHg 85%
    17:00 +6°C° 0.2 mm 4 mps 741 mmHg 85%
    18:00 +6°C° 0.2 mm 4 mps 741 mmHg 86%
    19:00 +6°C° 0.2 mm 4 mps 741 mmHg 86%
    20:00 +5°C° 0.1 mm 4 mps 741 mmHg 86%
    21:00 +5°C° 0.1 mm 4 mps 741 mmHg 86%
    22:00 +5°C° 0.1 mm 4 mps 742 mmHg 86%
    23:00 +5°C° 0.2 mm 4 mps 742 mmHg 86%

    Tomorrow, 19 February, Monday

    Time Temperature Precipitation Wind Pressure Humidity
    00:00 +5°C° 0.2 mm 4 mps 742 mmHg 86%
    01:00 +5°C° 0.2 mm 4 mps 742 mmHg 86%
    02:00 +4°C° 0.1 mm 4 mps 741 mmHg 86%
    03:00 +4°C° 0.1 mm 4 mps 741 mmHg 85%
    04:00 +4°C° 0.1 mm 4 mps 741 mmHg 84%
    05:00 +4°C° 0.1 mm 4 mps 741 mmHg 84%
    06:00 +4°C° 0.1 mm 4 mps 741 mmHg 84%
    07:00 +4°C° 0.1 mm 4 mps 740 mmHg 83%
    08:00 +4°C° 0.1 mm 4 mps 741 mmHg 81%
    09:00 +5°C° 0.1 mm 4 mps 741 mmHg 78%
    10:00 +5°C° 0.1 mm 5 mps 741 mmHg 76%
    11:00 +6°C° 0 mm 4 mps 741 mmHg 74%
    12:00 +7°C° 0 mm 4 mps 741 mmHg 72%
    13:00 +7°C° 0 mm 4 mps 741 mmHg 69%
    14:00 +7°C° 0 mm 4 mps 740 mmHg 69%
    15:00 +7°C° 0 mm 4 mps 740 mmHg 69%
    16:00 +7°C° 0 mm 4 mps 740 mmHg 69%
    17:00 +7°C° 0 mm 3 mps 740 mmHg 73%
    18:00 +5°C° 0 mm 3 mps 739 mmHg 77%
    19:00 +4°C° 0 mm 3 mps 739 mmHg 80%
    20:00 +3°C° 0 mm 3 mps 739 mmHg 81%
    21:00 +4°C° 0 mm 2 mps 739 mmHg 82%
    22:00 +3°C° 0 mm 2 mps 739 mmHg 83%
    23:00 +3°C° 0 mm 2 mps 739 mmHg 83%

    Day after tomorrow, 20 February, Tuesday

    Time Temperature Precipitation Wind Pressure Humidity
    00:00 +3°C° 0 mm 2 mps 739 mmHg 83%
    01:00 +2°C° 0 mm 2 mps 739 mmHg 84%
    02:00 +2°C° 0 mm 2 mps 738 mmHg 84%
    03:00 +2°C° 0 mm 2 mps 738 mmHg 84%
    04:00 +2°C° 0 mm 2 mps 738 mmHg 85%
    05:00 +1°C° 0 mm 2 mps 737 mmHg 84%
    06:00 +1°C° 0 mm 2 mps 737 mmHg 84%
    07:00 +1°C° 0 mm 2 mps 737 mmHg 84%
    08:00 +2°C° 0 mm 2 mps 737 mmHg 77%
    09:00 +4°C° 0 mm 2 mps 737 mmHg 71%
    10:00 +5°C° 0 mm 3 mps 737 mmHg 64%
    11:00 +7°C° 0 mm 3 mps 737 mmHg 61%
    12:00 +8°C° 0 mm 2 mps 737 mmHg 58%
    13:00 +9°C° 0 mm 2 mps 736 mmHg 55%
    14:00 +8°C° 0 mm 2 mps 736 mmHg 56%
    15:00 +8°C° 0 mm 2 mps 736 mmHg 57%
    16:00 +8°C° 0 mm 2 mps 735 mmHg 57%
    17:00 +7°C° 0 mm 2 mps 735 mmHg 63%
    18:00 +5°C° 0 mm 2 mps 735 mmHg 69%
    19:00 +4°C° 0 mm 2 mps 735 mmHg 75%
    20:00 +3°C° 0 mm 2 mps 735 mmHg 76%
    21:00 +3°C° 0 mm 2 mps 735 mmHg 77%
    22:00 +2°C° 0 mm 2 mps 735 mmHg 78%
    23:00 +2°C° 0 mm 2 mps 735 mmHg 78%

    21 February, Wednesday

    Time Temperature Precipitation Wind Pressure Humidity
    00:00 +2°C° 0 mm 2 mps 735 mmHg 78%
    01:00 +2°C° 0 mm 2 mps 735 mmHg 78%
    02:00 +1°C° 0 mm 3 mps 734 mmHg 79%
    03:00 +1°C° 0 mm 3 mps 734 mmHg 81%
    04:00 +1°C° 0 mm 3 mps 734 mmHg 82%
    05:00 +2°C° 0.1 mm 3 mps 734 mmHg 82%
    06:00 +1°C° 0.1 mm 4 mps 734 mmHg 82%
    07:00 +1°C° 0.1 mm 4 mps 734 mmHg 81%
    08:00 +3°C° 0.1 mm 4 mps 734 mmHg 78%
    09:00 +3°C° 0.1 mm 5 mps 734 mmHg 74%
    10:00 +4°C° 0.1 mm 6 mps 735 mmHg 70%
    11:00 +4°C° 0.1 mm 6 mps 734 mmHg 68%
    12:00 +5°C° 0.1 mm 6 mps 734 mmHg 67%
    13:00 +5°C° 0.1 mm 6 mps 734 mmHg 65%
    14:00 +5°C° 0.1 mm 6 mps 734 mmHg 66%
    15:00 +5°C° 0.1 mm 6 mps 733 mmHg 67%
    16:00 +6°C° 0.1 mm 5 mps 733 mmHg 68%
    17:00 +5°C° 0.1 mm 5 mps 732 mmHg 70%
    18:00 +4°C° 0.1 mm 4 mps 732 mmHg 73%
    19:00 +3°C° 0.1 mm 3 mps 732 mmHg 76%
    20:00 +3°C° 0.2 mm 3 mps 732 mmHg 77%
    21:00 +3°C° 0.2 mm 3 mps 732 mmHg 78%
    22:00 +2°C° 0.2 mm 3 mps 732 mmHg 79%
    23:00 +3°C° 0.4 mm 3 mps 732 mmHg 79%

    22 February, Thursday

    Time Temperature Precipitation Wind Pressure Humidity
    00:00 +3°C° 0.4 mm 3 mps 731 mmHg 80%
    01:00 +3°C° 0.4 mm 3 mps 731 mmHg 81%
    02:00 +3°C° 0.3 mm 3 mps 730 mmHg 82%
    03:00 +3°C° 0.3 mm 3 mps 730 mmHg 83%
    04:00 +3°C° 0.3 mm 3 mps 730 mmHg 83%
    05:00 +2°C° 0.1 mm 3 mps 730 mmHg 84%
    06:00 +2°C° 0.1 mm 3 mps 729 mmHg 84%
    07:00 +2°C° 0.1 mm 3 mps 729 mmHg 85%
    08:00 +3°C° 0 mm 3 mps 729 mmHg 82%
    09:00 +4°C° 0 mm 3 mps 730 mmHg 78%
    10:00 +5°C° 0 mm 4 mps 730 mmHg 75%
    11:00 +6°C° 0.1 mm 4 mps 730 mmHg 72%
    12:00 +6°C° 0.1 mm 4 mps 730 mmHg 69%
    13:00 +7°C° 0.1 mm 4 mps 730 mmHg 66%
    14:00 +7°C° 0.2 mm 4 mps 729 mmHg 67%
    15:00 +8°C° 0.2 mm 3 mps 729 mmHg 69%
    16:00 +7°C° 0.2 mm 3 mps 729 mmHg 70%
    17:00 +7°C° 0.1 mm 3 mps 729 mmHg 74%
    18:00 +5°C° 0.1 mm 3 mps 729 mmHg 78%
    19:00 +5°C° 0.1 mm 2 mps 729 mmHg 82%
    20:00 +4°C° 0.1 mm 2 mps 729 mmHg 83%
    21:00 +4°C° 0.1 mm 2 mps 729 mmHg 84%
    22:00 +4°C° 0.1 mm 2 mps 729 mmHg 86%
    23:00 +4°C° 0.1 mm 2 mps 729 mmHg 86%

    23 February, Friday

    Time Temperature Precipitation Wind Pressure Humidity
    00:00 +4°C° 0.1 mm 2 mps 728 mmHg 87%
    01:00 +4°C° 0.1 mm 2 mps 728 mmHg 87%
    02:00 +4°C° 0.1 mm 2 mps 728 mmHg 87%
    03:00 +3°C° 0.1 mm 2 mps 728 mmHg 88%
    04:00 +3°C° 0.1 mm 2 mps 727 mmHg 88%
    05:00 +3°C° 0 mm 2 mps 727 mmHg 88%
    06:00 +3°C° 0 mm 2 mps 727 mmHg 89%
    07:00 +3°C° 0 mm 2 mps 727 mmHg 89%
    08:00 +4°C° 0 mm 2 mps 728 mmHg 84%
    09:00 +5°C° 0 mm 2 mps 728 mmHg 79%
    10:00 +6°C° 0 mm 2 mps 728 mmHg 75%
    11:00 +7°C° 0 mm 2 mps 729 mmHg 70%
    12:00 +8°C° 0 mm 2 mps 729 mmHg 66%
    13:00 +9°C° 0 mm 2 mps 729 mmHg 62%
    14:00 +9°C° 0.1 mm 2 mps 729 mmHg 62%
    15:00 +9°C° 0.1 mm 2 mps 729 mmHg 63%
    16:00 +9°C° 0.1 mm 2 mps 729 mmHg 64%
    17:00 +7°C° 0 mm 2 mps 729 mmHg 69%
    18:00 +6°C° 0 mm 2 mps 729 mmHg 75%
    19:00 +5°C° 0 mm 2 mps 729 mmHg 80%
    20:00 +4°C° 0 mm 2 mps 730 mmHg 81%
    21:00 +5°C° 0 mm 1 mps 730 mmHg 83%
    22:00 +5°C° 0 mm 1 mps 730 mmHg 84%
    23:00 +5°C° 0 mm 1 mps 730 mmHg 84%
    Show more